Temperature
10 10 9 9 9 9 9 9 9 9 9 9 10 10 10 10 10 10 10 10 10 10 10 10 10 10 10 9 9 9 9 9 9 9 9 9 9 9 9 9 9 9 9
9 9 9 8 8 9 9 8 9 9 9 9 9 9 9 9 9 9 9 10 10 10 10 10 9 9 9 9 9 9 9 9 9 8 8 8 8 9 9 9 8 9 9
9 8 8 8 8 8 8 8 8 8 8 9 9 9 9 9 9 9 9 9 9 9 9 9 9 9 9 8 8 8 8 8 8 8 8 7 7 8 8 8 8 8 8
9 8 8 7 7 7 7 8 8 8 8 8 8 8 8 8 8 8 8 8 8 8 8 8 8 8 8 8 8 8 8 7 7 7 7 7 7 7 7 7 7 7 7
8 8 7 7 7 7 7 7 7 7 7 7 7 8 7 7 7 7 7 8 8 8 8 8 8 8 8 7 7 7 7 7 7 7 7 6 6 6 6 6 6 7 7
8 8 7 6 6 6 7 7 6 6 7 7 7 7 7 7 7 7 7 7 7 7 7 7 7 7 7 7 7 7 6 6 6 6 6 6 6 6 6 6 6 6 6
8 7 6 6 6 6 6 6 6 6 6 6 6 6 6 6 6 6 6 6 7 7 7 6 6 6 6 6 6 6 6 6 6 5 5 5 5 5 5 5 5 5 5
7 6 6 5 5 5 5 5 5 5 5 6 6 6 6 6 6 6 6 6 6 6 6 6 6 6 5 5 5 5 5 5 5 5 5 5 5 4 4 4 4 4 4
6 5 5 4 4 4 4 5 5 5 5 5 5 5 5 5 5 5 5 5 5 5 5 5 5 5 5 5 5 5 5 5 5 5 5 4 4 4 4 4 4 3 3
5 5 4 4 4 4 4 4 4 4 5 4 4 4 5 5 5 5 4 4 4 4 4 4 4 4 4 4 4 4 4 4 4 4 4 4 4 4 3 3 3 3 3
5 4 4 4 3 3 3 4 4 4 4 4 4 4 4 4 4 4 4 4 4 4 4 4 4 4 4 4 4 4 4 4 4 4 4 4 3 3 3 3 3 3 3
4 4 3 3 3 3 3 3 3 3 3 3 3 3 4 4 3 3 3 3 3 3 3 3 3 3 3 3 3 3 3 3 3 3 3 3 3 3 3 2 2 2 2
4 3 3 3 2 2 2 3 3 3 3 3 3 3 3 3 3 3 3 3 3 3 3 3 3 3 3 3 3 2 3 3 3 3 2 2 2 2 2 2 2 2 2
3 3 2 2 2 2 2 2 2 2 2 2 2 3 3 2 2 2 2 2 2 2 2 2 2 2 2 2 2 2 2 2 2 2 2 2 2 2 2 2 2 2 2
3 2 2 2 2 1 1 2 2 2 2 2 2 2 2 2 2 2 2 2 2 2 2 1 1 1 2 2 1 1 1 1 1 1 1 1 1 1 1 1 1 1 1
2 2 1 1 1 1 1 1 2 2 1 1 2 2 1 1 1 1 1 1 1 1 1 1 1 1 1 1 1 1 1 1 1 1 1 1 1 1 1 1 1 1 1
2 1 1 1 1 1 1 1 1 1 1 1 1 1 1 1 1 1 1 1 1 1 1 1 1 1 1 0 0 0 -0 0 0 0 0 0 0 0 0 0 0 0 0
1 1 1 1 1 0 0 0 0 0 0 1 1 0 0 0 0 0 0 0 0 0 0 0 0 0 0 -0 -0 -0 -1 -0 -0 -0 -0 -0 -0 -0 -0 -0 -0 -0 -0
1 1 1 0 0 0 0 0 0 -0 -0 -0 -0 -0 -0 -0 -0 -0 -0 -1 -1 -1 -1 -1 -0 -0 -0 -0 -1 -1 -1 -1 -1 -1 -1 -1 -1 -1 -1 -1 -1 -1 -0
1 0 0 0 -0 -0 -0 -0 -0 -0 -1 -1 -1 -1 -1 -1 -1 -1 -1 -1 -1 -1 -1 -1 -1 -1 -1 -1 -1 -1 -2 -2 -1 -1 -1 -1 -1 -1 -1 -1 -2 -1 -1
0 0 -0 -0 -0 -1 -1 -1 -1 -1 -1 -1 -1 -1 -1 -1 -1 -1 -1 -2 -2 -2 -2 -2 -2 -2 -2 -2 -2 -2 -2 -2 -2 -2 -2 -2 -2 -2 -2 -2 -2 -2 -2
-0 -0 -1 -1 -1 -1 -1 -1 -1 -1 -1 -1 -1 -1 -1 -2 -2 -2 -2 -2 -2 -2 -2 -2 -2 -2 -2 -2 -2 -2 -2 -3 -3 -3 -3 -3 -3 -3 -3 -3 -3 -3 -3
-1 -1 -1 -1 -1 -1 -2 -2 -2 -2 -2 -2 -2 -2 -2 -2 -2 -2 -2 -2 -2 -3 -3 -3 -3 -3 -3 -3 -3 -3 -3 -3 -3 -3 -3 -3 -3 -3 -3 -3 -3 -3 -3
-1 -1 -2 -2 -2 -2 -2 -2 -2 -2 -2 -2 -2 -2 -2 -3 -3 -3 -3 -3 -3 -3 -3 -3 -3 -3 -3 -3 -3 -3 -3 -3 -3 -3 -3 -3 -3 -3 -4 -3 -3 -3 -4
-2 -2 -2 -2 -2 -2 -2 -2 -2 -2 -2 -3 -3 -3 -3 -3 -3 -3 -3 -3 -3 -3 -3 -3 -4 -4 -4 -3 -4 -4 -4 -4 -4 -4 -4 -4 -4 -4 -4 -4 -4 -4 -4
-2 -2 -2 -3 -3 -2 -2 -2 -3 -3 -3 -3 -3 -3 -3 -3 -3 -3 -3 -3 -3 -3 -4 -4 -4 -4 -4 -4 -4 -4 -4 -4 -4 -4 -4 -4 -4 -4 -5 -4 -4 -4 -4
Wind_Speed
3 3 3 3 3 3 3 2 3 2 2 1 1 2 2 3 3 3 3 3 4 4 3 2 2 2 1 1 1 1 1 1 1 0 1 2 1 2 2 1 2 2 1
2 3 3 4 3 2 2 2 2 2 2 1 1 1 2 3 3 2 3 3 3 3 2 2 1 1 1 1 1 1 0 1 1 1 0 1 2 2 2 2 2 1 1
3 2 3 3 3 2 2 2 2 2 2 3 2 2 2 2 2 2 2 2 3 3 2 2 1 1 1 0 1 1 0 1 1 1 1 1 2 2 1 2 2 1 1
3 3 3 3 2 2 2 2 2 2 2 2 2 3 2 2 1 1 2 1 2 2 2 1 1 1 1 1 1 1 0 1 1 1 1 1 1 1 2 2 1 2 2
3 3 3 3 3 3 2 2 2 2 2 2 2 2 1 1 1 1 1 1 1 2 2 1 0 1 1 1 1 1 1 1 1 1 1 1 2 0 1 2 2 2 1
3 4 4 3 3 3 3 2 2 2 1 1 1 2 2 1 1 1 1 1 1 1 1 1 1 1 1 1 1 2 1 1 1 0 0 0 1 1 1 2 3 3 3
3 3 4 3 2 3 2 1 1 1 1 1 1 1 1 1 1 0 1 0 0 0 1 1 1 1 2 2 2 2 2 2 1 1 1 1 2 1 1 1 2 3 3
3 3 3 3 2 2 1 1 0 0 1 1 0 0 1 1 1 1 1 1 1 1 1 1 1 2 2 3 2 2 3 2 3 3 2 2 2 1 1 1 1 3 3
3 3 3 2 2 2 1 1 1 1 1 1 0 0 0 0 0 1 1 1 1 1 1 1 1 2 2 2 2 3 3 3 4 3 3 2 2 2 2 2 2 2 3
3 3 2 2 2 1 1 1 0 1 1 1 1 1 1 1 1 1 1 1 1 1 1 1 2 2 2 3 3 3 3 3 3 3 3 3 2 2 2 2 3 3 4
2 2 2 2 1 1 0 0 0 0 1 1 1 1 1 1 1 1 2 2 2 1 2 2 2 2 2 2 2 3 3 3 3 3 4 4 4 3 3 3 3 4 3
2 2 2 2 2 1 1 0 0 1 1 1 1 2 2 1 2 2 2 2 2 2 2 2 2 2 3 3 3 3 3 4 4 4 4 5 4 4 4 3 4 4 4
2 2 2 2 2 2 2 1 1 1 2 2 2 2 2 2 2 2 2 2 3 3 2 3 3 3 3 3 3 3 4 4 4 4 5 5 4 5 4 4 5 4 4
1 2 2 3 3 3 3 2 1 1 2 2 2 2 2 2 2 3 3 3 3 3 3 3 3 4 3 3 4 4 4 4 4 4 5 5 5 5 5 5 5 4 4
1 1 2 3 3 3 3 3 2 2 2 2 2 3 2 2 2 3 3 3 3 3 3 3 3 4 3 3 4 4 4 4 4 4 5 5 6 7 6 5 4 4 4
2 2 3 3 3 3 3 4 3 3 3 3 3 3 2 3 3 3 3 3 3 3 3 3 4 4 4 6 7 5 4 4 5 5 5 5 6 7 9 9 8 7 6
3 3 3 3 3 3 3 4 3 3 3 3 3 3 3 3 3 4 4 4 4 3 4 4 4 4 5 8 8 8 4 4 4 5 5 5 5 5 4 7 8 8 10
3 3 3 3 3 3 3 4 3 3 3 3 3 3 3 4 4 4 4 4 3 4 4 4 4 4 6 8 8 8 4 4 5 5 5 5 4 5 5 5 5 6 6
3 3 3 3 3 3 3 3 3 3 3 3 3 3 4 4 4 4 4 4 4 4 4 4 4 4 5 8 8 7 3 4 5 5 5 5 5 8 8 5 5 6 6
3 2 2 3 3 3 2 3 3 3 3 3 4 4 4 4 5 5 5 4 4 4 4 4 4 5 5 7 8 7 3 4 4 4 5 7 8 9 9 5 5 7 6
3 2 2 3 3 2 2 3 3 4 3 3 4 5 5 5 5 5 4 4 4 3 4 5 5 5 5 6 8 7 4 4 4 4 4 5 9 10 10 8 6 8 7
3 3 3 3 3 2 2 3 4 3 3 4 5 5 5 5 4 4 4 4 3 3 4 4 4 4 4 6 7 8 8 6 5 5 4 5 9 10 10 8 8 10 8
3 3 3 3 3 3 3 4 4 3 3 4 5 5 5 5 4 4 4 3 3 3 4 4 4 4 3 4 7 8 9 9 6 5 7 8 9 9 8 9 10 7 4
3 3 3 4 4 3 3 4 3 3 4 5 5 5 4 5 4 3 3 3 4 4 4 4 4 4 4 4 3 4 5 7 6 5 6 8 9 8 8 7 6 4 4
3 3 4 5 5 4 4 4 3 3 4 5 5 5 4 4 4 4 4 4 5 5 5 4 4 4 5 6 7 5 4 4 5 4 3 3 3 4 4 4 4 3 3
4 4 5 5 5 4 4 4 3 3 4 4 4 4 3 3 3 4 4 6 7 9 9 8 7 6 8 9 9 9 9 9 8 5 4 4 4 4 4 4 4 4 4
Wind_Direction
125 115 106 92 74 61 72 86 84 76 73 73 107 133 134 131 122 101 103 105 98 95 89 73 73 44 43 13 347 348 321 348 10 349 301 290 234 197 196 166 135 135 141
102 95 92 87 90 77 65 69 86 87 78 71 85 132 137 132 132 108 94 101 103 102 108 101 117 88 11 7 346 359 354 313 72 115 45 304 299 279 219 164 161 163 144
150 122 103 89 85 77 61 67 60 81 78 70 69 85 86 93 100 113 127 113 123 126 116 123 132 147 128 278 293 301 113 237 254 143 129 164 242 303 264 205 185 178 186
138 132 120 113 98 77 63 70 65 66 83 96 103 114 131 145 145 151 153 146 122 121 111 91 118 153 167 213 264 298 294 162 229 286 280 225 182 161 299 297 245 223 213
141 133 119 118 108 92 72 67 74 64 74 111 112 116 94 108 101 110 120 141 133 108 96 79 4 185 189 207 240 278 279 197 169 237 287 305 314 226 203 273 300 305 261
119 122 114 104 93 86 74 60 63 60 60 112 128 124 113 80 85 107 148 168 135 114 71 354 312 257 218 219 243 258 241 246 234 233 251 260 263 270 235 256 283 286 282
100 106 111 102 87 78 70 54 47 21 27 100 125 143 150 146 144 166 220 201 181 179 209 293 273 266 249 239 231 236 240 233 228 228 242 251 259 276 267 268 289 297 293
78 90 103 112 103 95 83 62 60 355 8 34 7 275 187 177 192 227 232 228 221 213 226 276 270 278 279 260 233 223 227 228 228 233 229 244 255 252 241 238 269 296 290
62 72 74 83 95 87 59 31 1 346 333 333 308 292 248 187 232 281 282 260 279 275 258 273 253 256 257 256 239 236 231 228 228 227 222 227 243 251 250 242 229 230 265
35 42 53 57 59 79 56 34 315 277 283 281 253 253 212 201 216 250 275 277 285 313 279 267 261 258 255 241 236 246 241 233 232 231 225 225 230 238 241 239 247 237 237
13 15 19 17 23 51 78 203 238 255 267 258 246 241 218 210 221 229 241 245 248 250 253 260 262 263 262 256 244 250 246 239 245 245 235 234 232 234 238 244 247 247 242
11 1 2 6 3 355 334 262 251 291 288 258 252 239 222 225 235 244 244 243 246 239 240 249 254 262 267 263 255 263 255 247 247 246 242 241 241 241 239 239 243 248 249
360 2 11 351 339 333 320 289 272 288 295 274 260 253 243 239 245 255 252 248 243 239 238 240 250 254 256 261 262 259 263 265 255 250 247 246 241 243 245 241 243 246 255
8 4 351 338 335 326 314 312 298 291 293 284 260 253 254 250 254 257 250 251 247 236 232 237 245 250 255 257 260 261 265 266 263 256 250 248 244 247 246 246 245 249 249
343 326 320 323 324 324 327 327 317 306 297 284 266 257 267 264 262 258 256 257 255 248 235 236 243 248 249 257 265 262 264 264 264 260 255 255 255 255 256 257 250 250 249
275 289 294 300 306 309 318 318 311 307 301 287 274 271 266 259 260 259 254 254 253 243 240 240 241 245 257 267 272 274 266 268 270 269 263 262 258 260 264 265 262 253 248
276 275 278 286 295 297 300 295 293 295 288 280 279 276 277 271 266 266 259 255 253 243 244 243 239 241 253 266 269 272 268 264 265 270 271 275 272 273 267 272 272 269 267
284 286 289 297 297 297 300 293 287 282 280 281 281 282 286 280 271 265 261 261 263 252 250 251 247 248 256 268 271 273 263 258 261 264 265 269 267 266 270 269 269 270 273
279 278 282 290 294 292 290 285 279 277 277 279 284 284 278 273 267 262 258 262 262 259 255 255 252 253 260 271 276 276 263 258 262 263 261 264 262 271 277 275 272 277 279
295 293 303 300 290 279 272 265 267 268 268 276 284 287 281 269 263 262 265 263 259 257 258 261 256 254 253 264 271 277 263 262 269 267 262 264 267 270 274 268 265 271 277
290 292 288 280 273 268 261 258 267 268 280 288 285 281 276 270 264 262 261 260 261 258 259 260 260 254 258 266 269 273 269 266 272 272 271 271 275 275 275 273 261 266 277
283 285 283 282 274 251 244 257 265 276 292 290 285 281 275 271 270 263 261 258 255 254 258 261 266 261 261 266 267 271 272 277 268 269 271 274 281 282 281 278 277 280 284
281 284 278 282 280 254 233 250 266 282 290 286 283 283 281 271 266 261 258 255 248 249 257 259 266 270 265 266 272 275 275 279 278 273 277 280 283 286 283 279 279 281 273
283 286 283 279 280 269 251 249 262 269 272 276 280 279 279 277 272 261 252 250 246 247 252 255 260 267 265 260 263 273 280 281 282 282 278 279 280 284 283 280 276 267 256
281 270 266 268 272 269 260 253 248 249 258 266 271 272 271 270 270 264 252 249 244 244 252 254 253 260 264 267 279 285 281 279 271 284 274 270 273 271 272 272 264 255 257
277 274 272 274 276 270 266 258 239 234 245 262 268 266 267 266 263 269 277 266 264 270 271 271 271 269 271 278 281 283 285 284 282 282 269 265 265 262 265 267 265 256 253
Height
1486 1486 1486 1487 1486 1487 1487 1487 1487 1488 1489 1490 1492 1494 1495 1497 1499 1501 1503 1504 1505 1507 1508 1509 1510 1510 1511 1511 1512 1512 1513 1513 1513 1514 1514 1514 1514 1514 1515 1515 1516 1516 1517
1483 1483 1484 1484 1484 1485 1485 1485 1485 1486 1487 1488 1490 1492 1494 1495 1497 1498 1500 1502 1503 1504 1505 1506 1507 1507 1508 1509 1510 1510 1510 1510 1510 1511 1511 1511 1512 1511 1511 1512 1513 1513 1514
1482 1482 1482 1482 1483 1483 1483 1483 1484 1485 1485 1487 1488 1490 1491 1493 1494 1496 1498 1499 1500 1501 1502 1503 1504 1504 1505 1507 1507 1507 1507 1507 1508 1509 1510 1510 1509 1508 1509 1509 1510 1510 1511
1480 1481 1481 1481 1481 1481 1482 1482 1483 1483 1484 1485 1486 1487 1488 1490 1492 1494 1495 1497 1498 1498 1499 1500 1501 1501 1502 1503 1504 1504 1505 1505 1505 1506 1507 1508 1508 1508 1506 1507 1507 1507 1507
1478 1478 1479 1480 1480 1480 1481 1481 1482 1482 1483 1484 1484 1485 1487 1488 1490 1491 1492 1493 1494 1495 1496 1497 1498 1498 1499 1500 1501 1501 1502 1501 1502 1503 1504 1504 1505 1505 1505 1504 1504 1504 1504
1477 1478 1478 1479 1479 1479 1480 1480 1480 1481 1482 1483 1483 1484 1485 1486 1487 1488 1489 1490 1491 1491 1492 1494 1494 1495 1495 1496 1497 1497 1498 1498 1499 1499 1500 1501 1501 1502 1502 1501 1501 1500 1501
1476 1477 1477 1477 1477 1477 1478 1478 1479 1479 1480 1481 1481 1482 1483 1484 1484 1485 1486 1487 1487 1488 1489 1490 1491 1491 1492 1492 1493 1494 1494 1495 1495 1496 1497 1497 1498 1499 1499 1499 1498 1498 1498
1476 1476 1476 1476 1476 1476 1476 1476 1477 1477 1478 1479 1479 1480 1481 1481 1482 1483 1483 1484 1484 1484 1485 1486 1487 1487 1488 1488 1489 1490 1490 1491 1491 1492 1493 1494 1494 1495 1495 1496 1496 1495 1495
1476 1476 1476 1475 1475 1475 1475 1475 1475 1475 1476 1476 1477 1477 1478 1478 1479 1480 1480 1480 1481 1481 1482 1482 1483 1484 1484 1484 1485 1485 1486 1487 1487 1488 1488 1489 1490 1491 1491 1492 1492 1493 1491
1475 1475 1475 1475 1474 1474 1474 1474 1474 1473 1473 1474 1474 1475 1475 1476 1476 1477 1477 1477 1478 1478 1479 1479 1479 1480 1480 1481 1481 1481 1482 1482 1483 1483 1484 1485 1486 1487 1487 1488 1488 1489 1488
1475 1474 1474 1474 1473 1473 1472 1472 1472 1472 1471 1471 1472 1472 1473 1473 1473 1474 1474 1474 1475 1475 1475 1475 1475 1476 1476 1477 1477 1477 1477 1478 1478 1479 1479 1480 1481 1482 1482 1483 1483 1484 1484
1473 1473 1473 1472 1471 1471 1470 1470 1469 1469 1469 1469 1469 1469 1469 1470 1470 1470 1471 1471 1471 1471 1471 1472 1472 1472 1473 1473 1473 1473 1474 1474 1474 1475 1475 1475 1476 1477 1477 1478 1478 1478 1478
1471 1471 1471 1470 1470 1469 1468 1467 1466 1466 1466 1465 1466 1466 1466 1466 1466 1467 1467 1468 1468 1468 1467 1468 1468 1468 1469 1469 1469 1469 1469 1469 1470 1470 1471 1471 1471 1471 1472 1473 1473 1473 1473
1470 1470 1469 1469 1468 1467 1466 1465 1463 1463 1462 1462 1462 1462 1462 1462 1463 1464 1464 1464 1464 1464 1463 1464 1464 1464 1465 1465 1465 1465 1465 1465 1465 1466 1466 1466 1466 1467 1467 1467 1467 1467 1467
1469 1468 1467 1466 1465 1464 1463 1462 1461 1460 1459 1458 1458 1458 1458 1459 1459 1460 1460 1460 1460 1460 1460 1460 1460 1460 1461 1461 1461 1461 1461 1461 1461 1461 1461 1461 1462 1462 1462 1463 1462 1462 1462
1467 1466 1465 1464 1463 1462 1460 1459 1458 1457 1456 1455 1454 1455 1455 1455 1455 1455 1455 1456 1456 1456 1456 1456 1456 1456 1456 1457 1457 1457 1457 1456 1456 1457 1457 1457 1457 1457 1457 1458 1458 1458 1457
1464 1463 1462 1461 1460 1458 1457 1455 1454 1454 1453 1452 1451 1451 1451 1451 1451 1451 1451 1451 1451 1451 1451 1451 1452 1452 1452 1452 1453 1453 1452 1452 1452 1452 1452 1452 1452 1452 1452 1452 1452 1452 1452
1461 1460 1459 1458 1456 1455 1453 1452 1451 1450 1449 1448 1447 1447 1447 1447 1447 1447 1446 1446 1446 1446 1446 1447 1447 1447 1447 1448 1448 1448 1448 1447 1447 1447 1447 1447 1447 1447 1447 1446 1446 1446 1446
1458 1457 1455 1454 1452 1450 1449 1448 1447 1446 1445 1444 1444 1443 1443 1442 1442 1442 1442 1442 1442 1442 1442 1442 1442 1442 1442 1443 1443 1443 1443 1442 1442 1442 1442 1442 1442 1442 1442 1441 1441 1440 1439
1455 1453 1451 1449 1448 1446 1445 1444 1444 1443 1442 1441 1440 1440 1439 1439 1438 1438 1438 1438 1438 1437 1437 1437 1438 1438 1438 1438 1439 1439 1438 1437 1437 1437 1437 1437 1437 1437 1436 1436 1435 1434 1434
1451 1449 1447 1446 1444 1443 1442 1441 1440 1439 1438 1438 1437 1436 1436 1435 1435 1434 1434 1434 1433 1433 1433 1433 1433 1433 1433 1434 1434 1434 1433 1433 1432 1431 1431 1431 1431 1431 1431 1431 1430 1429 1429
1447 1445 1444 1442 1440 1439 1438 1437 1436 1436 1435 1434 1433 1432 1432 1431 1431 1430 1430 1430 1429 1429 1429 1428 1428 1429 1429 1429 1429 1429 1429 1429 1427 1426 1426 1426 1426 1425 1425 1425 1424 1424 1423
1443 1441 1440 1438 1437 1436 1435 1434 1433 1432 1431 1430 1430 1429 1428 1428 1427 1427 1426 1426 1426 1425 1424 1424 1424 1424 1425 1425 1425 1425 1424 1423 1423 1422 1421 1421 1420 1420 1419 1419 1418 1418 1418
1439 1437 1436 1434 1433 1433 1432 1431 1430 1429 1428 1427 1426 1425 1425 1424 1424 1423 1423 1422 1422 1421 1421 1420 1420 1420 1420 1420 1420 1419 1419 1418 1417 1417 1416 1415 1415 1414 1414 1413 1413 1413 1412
1435 1434 1432 1431 1430 1429 1428 1427 1426 1425 1424 1423 1422 1422 1421 1421 1420 1420 1419 1419 1419 1418 1417 1416 1416 1416 1415 1415 1416 1415 1414 1413 1413 1412 1411 1410 1409 1408 1408 1408 1407 1407 1407
1431 1430 1428 1427 1426 1425 1424 1423 1422 1421 1420 1420 1419 1418 1417 1417 1416 1416 1416 1415 1415 1415 1414 1413 1413 1412 1412 1411 1411 1410 1410 1409 1409 1407 1406 1405 1404 1403 1403 1402 1402 1402 1402